Location: Clyde
(45.1830°S, 169.3170°E)
Time: 10:53:54
(UTC+12:00)

SAR-Lupe-4 - Pass Details

Date: 14 May 2021
Orbit: 483 x 483 km, 98.2° (Epoch: 13 April)

Event Time Altitude Azimuth Distance (km) Brightness Sun altitude
Rises 19:17:31 0° 8° (N) 2,549 7.2 -19.8°
Reaches altitude 10° 19:19:35 10° 5° (N) 1,677 6.3 -20.2°
Maximum altitude 19:23:10 65° 282° (WNW) 549 4.0 -20.8°
Drops below altitude 10° 19:26:49 10° 199° (SSW) 1,705 6.5 -21.4°
Sets 19:28:55 0° 196° (SSW) 2,595 7.4 -21.8°
